Location: Chantarel
(45.1638°N, 1.7873°E)
Time: 06:40:29
(UTC+00:00)

YAOGAN 1 - Pass Details

Date: 03 March 2021
Orbit: 618 x 620 km, 97.9° (Epoch: 10 April)

Event Time Altitude Azimuth Distance (km) Brightness Sun altitude
Rises 19:13:30 0° 189° (S) 2,883 6.0 -16.7°
Reaches altitude 10° 19:15:51 10° 199° (SSW) 1,983 5.3 -17.1°
Maximum altitude 19:19:45 33° 263° (W) 1,049 4.4 -17.8°
Drops below altitude 10° 19:23:42 10° 328° (NNW) 1,997 5.7 -18.5°
Sets 19:26:05 0° 338° (NNW) 2,908 6.5 -18.9°
